Time,TemperatureF,DewpointF,PressureIn,WindDirection,WindDirectionDegrees,WindSpeedMPH,WindSpeedGustMPH,Humidity,HourlyPrecipIn,Conditions,Clouds,dailyrainin,SoftwareType,DateUTC
2013-03-06 00:02:00,31.0,27.0,30.09,NW,317,6.0,14.0,85,0.00,,,0.16,,2013-03-06 06:02:00,
2013-03-06 00:11:00,31.0,27.0,30.09,NW,317,6.0,14.0,85,0.00,,,0.16,,2013-03-06 06:11:00,
2013-03-06 00:22:00,31.0,27.0,30.10,NW,304,9.0,15.0,85,0.00,,,0.16,,2013-03-06 06:22:00,
2013-03-06 00:32:00,31.0,27.0,30.10,NNW,336,8.0,17.0,84,0.00,,,0.16,,2013-03-06 06:32:00,
2013-03-06 00:42:00,31.0,27.0,30.10,NNW,336,8.0,17.0,84,0.00,,,0.16,,2013-03-06 06:42:00,
2013-03-06 00:52:00,31.0,26.0,30.10,WNW,284,9.0,20.0,80,0.00,,,0.16,,2013-03-06 06:52:00,
2013-03-06 01:01:00,31.0,24.0,30.11,NNW,330,11.0,24.0,75,0.00,,,0.16,,2013-03-06 07:01:00,
2013-03-06 01:11:00,31.0,24.0,30.11,NNW,330,11.0,24.0,75,0.00,,,0.16,,2013-03-06 07:11:00,
2013-03-06 01:22:00,31.0,24.0,30.12,NW,324,6.0,24.0,75,0.00,,,0.16,,2013-03-06 07:22:00,
2013-03-06 01:32:00,31.0,24.0,30.13,North,360,9.0,21.0,75,0.00,,,0.16,,2013-03-06 07:32:00,
2013-03-06 01:42:00,31.0,24.0,30.13,North,360,9.0,21.0,75,0.00,,,0.16,,2013-03-06 07:42:00,
2013-03-06 01:52:00,31.0,25.0,30.14,WNW,300,7.0,17.0,77,0.00,,,0.16,,2013-03-06 07:52:00,
2013-03-06 02:01:00,31.0,25.0,30.14,WNW,288,10.0,18.0,78,0.00,,,0.16,,2013-03-06 08:01:00,
2013-03-06 02:11:00,31.0,25.0,30.14,WNW,288,10.0,18.0,78,0.00,,,0.16,,2013-03-06 08:11:00,
2013-03-06 02:21:00,30.0,24.0,30.15,NNW,344,6.0,17.0,78,0.00,,,0.16,,2013-03-06 08:21:00,
2013-03-06 02:32:00,30.0,24.0,30.15,NNW,337,8.0,17.0,78,0.00,,,0.16,,2013-03-06 08:32:00,
2013-03-06 02:42:00,30.0,24.0,30.15,NNW,337,8.0,17.0,78,0.00,,,0.16,,2013-03-06 08:42:00,
2013-03-06 02:52:00,30.0,24.0,30.15,WNW,294,4.0,17.0,78,0.00,,,0.16,,2013-03-06 08:52:00,
2013-03-06 03:01:00,30.0,24.0,30.14,WNW,282,7.0,14.0,78,0.00,,,0.16,,2013-03-06 09:01:00,
2013-03-06 03:12:00,30.0,24.0,30.14,WNW,282,7.0,14.0,78,0.00,,,0.16,,2013-03-06 09:12:00,
2013-03-06 03:21:00,30.0,24.0,30.15,NW,316,5.0,13.0,78,0.00,,,0.16,,2013-03-06 09:21:00,
2013-03-06 03:32:00,30.0,24.0,30.15,NNE,14,6.0,15.0,78,0.00,,,0.16,,2013-03-06 09:32:00,
2013-03-06 03:42:00,30.0,24.0,30.15,NNE,14,6.0,15.0,78,0.00,,,0.16,,2013-03-06 09:42:00,
2013-03-06 03:51:00,30.0,24.0,30.16,NW,315,4.0,12.0,78,0.00,,,0.16,,2013-03-06 09:51:00,
2013-03-06 04:01:00,30.0,24.0,30.17,NW,321,6.0,10.0,78,0.00,,,0.16,,2013-03-06 10:01:00,
2013-03-06 04:11:00,30.0,24.0,30.17,NW,321,6.0,10.0,78,0.00,,,0.16,,2013-03-06 10:11:00,
2013-03-06 04:21:00,30.0,24.0,30.18,NW,324,6.0,14.0,78,0.00,,,0.16,,2013-03-06 10:21:00,
2013-03-06 04:32:00,30.0,24.0,30.19,NW,319,7.0,17.0,78,0.00,,,0.16,,2013-03-06 10:32:00,
2013-03-06 04:42:00,30.0,24.0,30.19,NW,319,7.0,17.0,78,0.00,,,0.16,,2013-03-06 10:42:00,
2013-03-06 04:51:00,30.0,24.0,30.20,WNW,303,8.0,17.0,78,0.00,,,0.16,,2013-03-06 10:51:00,
2013-03-06 05:02:00,30.0,24.0,30.21,NW,321,11.0,18.0,78,0.00,,,0.16,,2013-03-06 11:02:00,
2013-03-06 05:11:00,30.0,24.0,30.21,NW,321,11.0,18.0,78,0.00,,,0.16,,2013-03-06 11:11:00,
2013-03-06 05:22:00,30.0,24.0,30.22,North,10,7.0,17.0,78,0.00,,,0.16,,2013-03-06 11:22:00,
2013-03-06 05:32:00,30.0,24.0,30.23,NNW,336,6.0,13.0,78,0.00,,,0.16,,2013-03-06 11:32:00,
2013-03-06 05:42:00,30.0,24.0,30.23,NNW,336,6.0,13.0,78,0.00,,,0.16,,2013-03-06 11:42:00,
2013-03-06 05:52:00,30.0,24.0,30.23,NW,305,7.0,18.0,78,0.00,,,0.16,,2013-03-06 11:52:00,
2013-03-06 06:02:00,30.0,24.0,30.24,NNW,339,7.0,21.0,78,0.00,,,0.16,,2013-03-06 12:02:00,
2013-03-06 06:11:00,30.0,24.0,30.24,NNW,339,7.0,21.0,78,0.00,,,0.16,,2013-03-06 12:11:00,
2013-03-06 06:21:00,30.0,24.0,30.24,NNW,328,8.0,18.0,78,0.00,,,0.16,,2013-03-06 12:21:00,
2013-03-06 06:32:00,30.0,24.0,30.25,NW,323,6.0,16.0,79,0.00,,,0.14,,2013-03-06 12:32:00,
2013-03-06 06:42:00,30.0,24.0,30.25,NW,323,6.0,16.0,79,0.00,,,0.14,,2013-03-06 12:42:00,
2013-03-06 06:52:00,30.0,24.0,30.25,NNW,330,7.0,19.0,79,0.00,,,0.14,,2013-03-06 12:52:00,
2013-03-06 07:02:00,30.0,24.0,30.26,NW,325,7.0,17.0,78,0.00,,,0.14,,2013-03-06 13:02:00,
2013-03-06 07:11:00,30.0,24.0,30.26,NW,325,7.0,17.0,78,0.00,,,0.14,,2013-03-06 13:11:00,
2013-03-06 07:22:00,30.0,24.0,30.26,NW,311,9.0,18.0,78,0.00,,,0.14,,2013-03-06 13:22:00,
2013-03-06 07:32:00,30.0,24.0,30.27,NW,323,7.0,19.0,78,0.00,,,0.13,,2013-03-06 13:32:00,
2013-03-06 07:42:00,30.0,24.0,30.27,NW,323,7.0,19.0,78,0.00,,,0.13,,2013-03-06 13:42:00,
2013-03-06 07:52:00,30.0,24.0,30.28,WNW,290,7.0,16.0,78,0.00,,,0.13,,2013-03-06 13:52:00,
2013-03-06 08:01:00,31.0,24.0,30.28,NW,325,6.0,14.0,75,0.00,,,0.13,,2013-03-06 14:01:00,
2013-03-06 08:11:00,31.0,24.0,30.28,NW,325,6.0,14.0,75,0.00,,,0.13,,2013-03-06 14:11:00,
2013-03-06 08:22:00,32.0,24.0,30.29,NW,324,7.0,15.0,73,0.00,,,0.13,,2013-03-06 14:22:00,
2013-03-06 08:32:00,31.0,24.0,30.30,NW,322,8.0,13.0,75,0.00,,,0.13,,2013-03-06 14:32:00,
2013-03-06 08:42:00,31.0,24.0,30.30,NW,322,8.0,13.0,75,0.00,,,0.13,,2013-03-06 14:42:00,
2013-03-06 08:52:00,31.0,24.0,30.30,NNW,331,9.0,17.0,75,0.00,,,0.13,,2013-03-06 14:52:00,
2013-03-06 09:02:00,31.0,24.0,30.30,NNW,328,9.0,18.0,76,0.00,,,0.13,,2013-03-06 15:02:00,
2013-03-06 09:11:00,31.0,24.0,30.30,NNW,328,9.0,18.0,76,0.00,,,0.13,,2013-03-06 15:11:00,
2013-03-06 09:21:00,32.0,25.0,30.31,NNW,332,4.0,14.0,75,0.00,,,0.13,,2013-03-06 15:21:00,
2013-03-06 09:32:00,35.0,26.0,30.31,WNW,294,7.0,18.0,69,0.00,,,0.13,,2013-03-06 15:32:00,
2013-03-06 09:42:00,35.0,26.0,30.31,WNW,294,7.0,18.0,69,0.00,,,0.13,,2013-03-06 15:42:00,
2013-03-06 09:52:00,35.0,26.0,30.31,North,355,10.0,18.0,70,0.00,,,0.13,,2013-03-06 15:52:00,
2013-03-06 10:01:00,36.0,26.0,30.31,NNW,340,6.0,12.0,68,0.00,,,0.13,,2013-03-06 16:01:00,
2013-03-06 10:11:00,36.0,26.0,30.31,NNW,340,6.0,12.0,68,0.00,,,0.13,,2013-03-06 16:11:00,
2013-03-06 10:21:00,36.0,26.0,30.32,WNW,303,3.0,13.0,67,0.00,,,0.13,,2013-03-06 16:21:00,
2013-03-06 10:32:00,37.0,27.0,30.32,NNW,341,6.0,14.0,66,0.01,,,0.14,,2013-03-06 16:32:00,
2013-03-06 10:42:00,37.0,27.0,30.32,NNW,341,6.0,14.0,66,0.01,,,0.14,,2013-03-06 16:42:00,
2013-03-06 10:52:00,37.0,27.0,30.32,NW,309,7.0,13.0,68,0.01,,,0.14,,2013-03-06 16:52:00,
2013-03-06 11:01:00,37.0,27.0,30.32,NNW,330,3.0,12.0,67,0.02,,,0.15,,2013-03-06 17:01:00,
2013-03-06 11:11:00,37.0,27.0,30.32,NNW,330,3.0,12.0,67,0.02,,,0.15,,2013-03-06 17:11:00,
2013-03-06 11:21:00,37.0,27.0,30.32,NNW,331,8.0,17.0,68,0.02,,,0.15,,2013-03-06 17:21:00,
2013-03-06 11:32:00,38.0,28.0,30.32,WNW,299,2.0,14.0,67,0.02,,,0.16,,2013-03-06 17:32:00,
2013-03-06 11:42:00,38.0,28.0,30.32,WNW,299,2.0,14.0,67,0.02,,,0.16,,2013-03-06 17:42:00,
2013-03-06 11:52:00,37.0,27.0,30.33,NNW,332,5.0,11.0,66,0.03,,,0.17,,2013-03-06 17:52:00,
2013-03-06 12:02:00,38.0,28.0,30.32,NW,315,4.0,10.0,67,0.03,,,0.18,,2013-03-06 18:02:00,
2013-03-06 12:28:00,38.0,27.0,30.32,NW,309,3.0,14.0,64,0.03,,,0.18,,2013-03-06 18:28:00,
2013-03-06 12:42:00,38.0,28.0,30.32,NW,313,6.0,12.0,66,0.03,,,0.17,,2013-03-06 18:42:00,
2013-03-06 12:52:00,38.0,28.0,30.31,NW,322,7.0,10.0,68,0.02,,,0.17,,2013-03-06 18:52:00,
2013-03-06 13:02:00,38.0,28.0,30.32,WNW,291,1.0,10.0,67,0.02,,,0.18,,2013-03-06 19:02:00,
2013-03-06 13:11:00,38.0,28.0,30.32,WNW,291,1.0,10.0,67,0.02,,,0.18,,2013-03-06 19:11:00,
2013-03-06 13:22:00,39.0,29.0,30.31,NNW,333,8.0,13.0,66,0.02,,,0.18,,2013-03-06 19:22:00,
2013-03-06 13:32:00,39.0,28.0,30.30,NW,325,2.0,11.0,65,0.02,,,0.15,,2013-03-06 19:32:00,
2013-03-06 13:43:00,39.0,28.0,30.30,NW,325,2.0,11.0,65,0.02,,,0.15,,2013-03-06 19:43:00,
2013-03-06 13:52:00,38.0,27.0,30.30,NNW,338,5.0,10.0,64,0.02,,,0.15,,2013-03-06 19:52:00,
2013-03-06 14:02:00,38.0,28.0,30.29,WNW,301,3.0,9.0,67,0.01,,,0.15,,2013-03-06 20:02:00,
2013-03-06 14:11:00,38.0,28.0,30.29,WNW,301,3.0,9.0,67,0.01,,,0.15,,2013-03-06 20:11:00,
2013-03-06 14:22:00,38.0,28.0,30.29,WNW,302,3.0,12.0,67,0.01,,,0.15,,2013-03-06 20:22:00,
2013-03-06 14:32:00,38.0,28.0,30.30,WNW,296,5.0,8.0,66,0.00,,,0.11,,2013-03-06 20:32:00,
2013-03-06 14:42:00,38.0,28.0,30.30,WNW,296,5.0,8.0,66,0.00,,,0.11,,2013-03-06 20:42:00,
2013-03-06 14:52:00,39.0,29.0,30.30,West,280,3.0,9.0,67,0.00,,,0.11,,2013-03-06 20:52:00,
2013-03-06 15:02:00,40.0,28.0,30.30,NW,314,6.0,14.0,62,0.00,,,0.11,,2013-03-06 21:02:00,
2013-03-06 15:11:00,40.0,28.0,30.30,NW,314,6.0,14.0,62,0.00,,,0.11,,2013-03-06 21:11:00,
2013-03-06 15:22:00,39.0,27.0,30.30,NW,310,3.0,10.0,63,0.00,,,0.11,,2013-03-06 21:22:00,
2013-03-06 15:32:00,39.0,27.0,30.30,NNW,327,5.0,10.0,63,0.00,,,0.09,,2013-03-06 21:32:00,
2013-03-06 15:42:00,39.0,27.0,30.30,NNW,327,5.0,10.0,63,0.00,,,0.09,,2013-03-06 21:42:00,
2013-03-06 15:51:00,39.0,27.0,30.30,West,281,3.0,10.0,63,0.00,,,0.09,,2013-03-06 21:51:00,
2013-03-06 16:01:00,39.0,28.0,30.30,NNW,330,2.0,7.0,64,0.00,,,0.09,,2013-03-06 22:01:00,
2013-03-06 16:11:00,39.0,28.0,30.30,NNW,330,2.0,7.0,64,0.00,,,0.09,,2013-03-06 22:11:00,
2013-03-06 16:22:00,39.0,27.0,30.30,WNW,294,1.0,9.0,61,0.00,,,0.09,,2013-03-06 22:22:00,
2013-03-06 16:32:00,38.0,26.0,30.29,NW,316,4.0,11.0,62,0.00,,,0.09,,2013-03-06 22:32:00,
2013-03-06 16:41:00,38.0,26.0,30.29,NW,316,4.0,11.0,62,0.00,,,0.09,,2013-03-06 22:41:00,
2013-03-06 16:51:00,38.0,27.0,30.29,WNW,287,5.0,9.0,63,0.00,,,0.09,,2013-03-06 22:51:00,
2013-03-06 17:01:00,37.0,26.0,30.30,NW,319,4.0,9.0,63,0.00,,,0.09,,2013-03-06 23:01:00,
2013-03-06 17:11:00,37.0,26.0,30.30,NW,319,4.0,9.0,63,0.00,,,0.09,,2013-03-06 23:11:00,
2013-03-06 17:21:00,37.0,26.0,30.29,West,273,5.0,10.0,63,0.00,,,0.09,,2013-03-06 23:21:00,
2013-03-06 17:32:00,36.0,25.0,30.30,WNW,300,4.0,9.0,64,0.00,,,0.09,,2013-03-06 23:32:00,
2013-03-06 17:42:00,36.0,25.0,30.30,WNW,300,4.0,9.0,64,0.00,,,0.09,,2013-03-06 23:42:00,
2013-03-06 17:52:00,36.0,25.0,30.30,WNW,300,1.0,6.0,65,0.00,,,0.09,,2013-03-06 23:52:00,
2013-03-06 18:01:00,35.0,25.0,30.30,NNW,327,4.0,8.0,66,0.00,,,0.09,,2013-03-07 00:01:00,
2013-03-06 18:11:00,35.0,25.0,30.30,NNW,327,4.0,8.0,66,0.00,,,0.09,,2013-03-07 00:11:00,
2013-03-06 18:21:00,34.0,24.0,30.30,WNW,287,2.0,8.0,67,0.00,,,0.09,,2013-03-07 00:21:00,
2013-03-06 18:32:00,33.0,24.0,30.30,WNW,300,1.0,4.0,68,0.00,,,0.08,,2013-03-07 00:32:00,
2013-03-06 18:41:00,33.0,24.0,30.30,WNW,300,1.0,4.0,68,0.00,,,0.08,,2013-03-07 00:41:00,
2013-03-06 18:52:00,33.0,24.0,30.30,WNW,295,2.0,6.0,69,0.00,,,0.08,,2013-03-07 00:52:00,
2013-03-06 19:01:00,32.0,23.0,30.30,NW,310,4.0,8.0,70,0.00,,,0.08,,2013-03-07 01:01:00,
2013-03-06 19:11:00,32.0,23.0,30.30,NW,310,4.0,8.0,70,0.00,,,0.08,,2013-03-07 01:11:00,
2013-03-06 19:21:00,32.0,23.0,30.31,WNW,301,1.0,6.0,70,0.00,,,0.08,,2013-03-07 01:21:00,
2013-03-06 19:32:00,31.0,23.0,30.30,NW,316,1.0,6.0,71,0.00,,,0.08,,2013-03-07 01:32:00,
2013-03-06 19:41:00,31.0,23.0,30.30,NW,316,1.0,6.0,71,0.00,,,0.08,,2013-03-07 01:41:00,
2013-03-06 19:51:00,31.0,23.0,30.30,WNW,288,0.0,5.0,72,0.00,,,0.08,,2013-03-07 01:51:00,
2013-03-06 20:01:00,30.0,22.0,30.29,NNW,328,0.0,5.0,73,0.00,,,0.08,,2013-03-07 02:01:00,
2013-03-06 20:11:00,30.0,22.0,30.29,NNW,328,0.0,5.0,73,0.00,,,0.08,,2013-03-07 02:11:00,
2013-03-06 20:21:00,30.0,23.0,30.29,NNW,330,0.0,4.0,74,0.00,,,0.08,,2013-03-07 02:21:00,
2013-03-06 20:32:00,30.0,23.0,30.30,NNW,330,0.0,1.0,74,0.00,,,0.08,,2013-03-07 02:32:00,
2013-03-06 20:41:00,30.0,23.0,30.30,NNW,330,0.0,1.0,74,0.00,,,0.08,,2013-03-07 02:41:00,
2013-03-06 20:51:00,30.0,23.0,30.30,NNW,330,0.0,1.0,74,0.00,,,0.08,,2013-03-07 02:51:00,
2013-03-06 21:02:00,29.0,22.0,30.30,NNW,330,0.0,2.0,76,0.00,,,0.08,,2013-03-07 03:02:00,
2013-03-06 21:11:00,29.0,22.0,30.30,NNW,330,0.0,2.0,76,0.00,,,0.08,,2013-03-07 03:11:00,
2013-03-06 21:21:00,29.0,22.0,30.31,NNW,330,0.0,0.0,76,0.00,,,0.08,,2013-03-07 03:21:00,
2013-03-06 21:32:00,29.0,22.0,30.31,NNW,330,0.0,0.0,76,0.00,,,0.08,,2013-03-07 03:32:00,
2013-03-06 21:42:00,29.0,22.0,30.31,NNW,330,0.0,0.0,76,0.00,,,0.08,,2013-03-07 03:42:00,
2013-03-06 21:52:00,29.0,23.0,30.31,NNW,330,0.0,0.0,77,0.00,,,0.08,,2013-03-07 03:52:00,
2013-03-06 22:01:00,28.0,22.0,30.31,NNW,330,0.0,0.0,78,0.00,,,0.08,,2013-03-07 04:01:00,
2013-03-06 22:11:00,28.0,22.0,30.31,NNW,330,0.0,0.0,78,0.00,,,0.08,,2013-03-07 04:11:00,
2013-03-06 22:21:00,28.0,22.0,30.31,NNW,330,0.0,0.0,78,0.00,,,0.08,,2013-03-07 04:21:00,
2013-03-06 22:32:00,28.0,22.0,30.31,NNW,330,0.0,0.0,79,0.00,,,0.08,,2013-03-07 04:32:00,
2013-03-06 22:42:00,28.0,22.0,30.31,NNW,330,0.0,0.0,79,0.00,,,0.08,,2013-03-07 04:42:00,
2013-03-06 22:51:00,28.0,22.0,30.30,NNW,330,0.0,0.0,79,0.00,,,0.08,,2013-03-07 04:51:00,
2013-03-06 23:02:00,27.0,22.0,30.30,NNW,330,0.0,0.0,80,0.00,,,0.08,,2013-03-07 05:02:00,
2013-03-06 23:12:00,27.0,22.0,30.30,NNW,330,0.0,0.0,80,0.00,,,0.08,,2013-03-07 05:12:00,
2013-03-06 23:22:00,27.0,22.0,30.30,NNW,330,0.0,0.0,81,0.00,,,0.08,,2013-03-07 05:22:00,
2013-03-06 23:32:00,27.0,22.0,30.31,NNW,330,0.0,0.0,82,0.00,,,0.08,,2013-03-07 05:32:00,
2013-03-06 23:42:00,27.0,22.0,30.31,NNW,330,0.0,0.0,82,0.00,,,0.08,,2013-03-07 05:42:00,
2013-03-06 23:52:00,27.0,22.0,30.30,NNW,330,0.0,1.0,82,0.00,,,0.08,,2013-03-07 05:52:00,